Location: Joplin, MO
(37.0842°N, 94.5133°W)
Time: 21:15:52
(UTC+02:00)

Transit 2A Rocket - Pass Details

Date: 03 April 2023
Orbit: 584 x 914 km, 66.7° (Epoch: 06 June)

Event Time Altitude Azimuth Distance (km) Brightness Sun altitude
Rises 17:12:29 0° 210° (SSW) 3,210 8.2 36.6°
Reaches altitude 10° 17:14:47 10° 211° (SSW) 2,337 7.6 37.0°
Maximum altitude 17:20:12 78° 298° (WNW) 857 5.7 38.0°
Drops below altitude 10° 17:26:08 10° 25° (NNE) 2,544 7.8 39.0°
Sets 17:28:43 0° 27° (NNE) 3,516 8.4 39.5°
